JBU186 KJFK-KROC

Flight info

Callsign JBU186
Flight time 0h 56m
Altitude 30000
Route NEION Q232 STUBN/N0404F290 GIBBE
Aircraft A320/M-SDE3FGHIRWY/LB1

Departure

Time 2026-05-04 00:15
Airport John F. Kennedy International Airport (KJFK)

Arrival

Time 2026-05-04 01:12
Airport Frederick Douglass Greater Rochester International Airport (KROC)
Time Latitude Longitude Altitude Speed Heading
2026-05-03 23:53 40.64530 -73.77297 16 ft 0 kts 18°
2026-05-04 00:06 40.64517 -73.77303 17 ft 4 kts 19°
2026-05-04 00:06 40.64491 -73.77314 17 ft 4 kts 19°
2026-05-04 00:07 40.64471 -73.77324 17 ft 4 kts 27°
2026-05-04 00:07 40.64453 -73.77345 17 ft 4 kts 75°
2026-05-04 00:07 40.64450 -73.77376 17 ft 3 kts 89°
2026-05-04 00:07 40.64450 -73.77381 17 ft 0 kts 89°
2026-05-04 00:10 40.64450 -73.77371 16 ft 2 kts 89°
2026-05-04 00:10 40.64452 -73.77335 16 ft 7 kts 86°
2026-05-04 00:11 40.64452 -73.77229 16 ft 13 kts 94°
2026-05-04 00:11 40.64434 -73.77122 16 ft 9 kts 140°
2026-05-04 00:11 40.64372 -73.77149 16 ft 11 kts 208°
2026-05-04 00:11 40.64294 -73.77209 16 ft 15 kts 211°
2026-05-04 00:12 40.64193 -73.77290 16 ft 19 kts 211°
2026-05-04 00:12 40.64076 -73.77383 16 ft 21 kts 211°
2026-05-04 00:12 40.63944 -73.77485 16 ft 23 kts 210°
2026-05-04 00:12 40.63802 -73.77596 16 ft 24 kts 212°
2026-05-04 00:13 40.63657 -73.77711 17 ft 25 kts 210°
2026-05-04 00:13 40.63523 -73.77817 16 ft 15 kts 210°
2026-05-04 00:13 40.63428 -73.77900 17 ft 17 kts 228°
2026-05-04 00:13 40.63415 -73.78048 18 ft 18 kts 295°
2026-05-04 00:14 40.63429 -73.78190 18 ft 17 kts 218°
2026-05-04 00:14 40.63334 -73.78275 22 ft 16 kts 228°
2026-05-04 00:14 40.63380 -73.78467 19 ft 43 kts 300°
2026-05-04 00:14 40.63647 -73.79064 20 ft 105 kts 301°
2026-05-04 00:15 40.64108 -73.80083 24 ft 152 kts 299°
2026-05-04 00:15 40.64650 -73.81307 476 ft 159 kts 298°
2026-05-04 00:15 40.64828 -73.82739 1012 ft 166 kts 258°
2026-05-04 00:15 40.64195 -73.84044 1582 ft 179 kts 222°
2026-05-04 00:16 40.63127 -73.84944 2166 ft 185 kts 217°
2026-05-04 00:16 40.61993 -73.85832 2667 ft 198 kts 218°
2026-05-04 00:16 40.60809 -73.86921 3002 ft 220 kts 224°
2026-05-04 00:16 40.59486 -73.88156 3438 ft 246 kts 218°
2026-05-04 00:17 40.58007 -73.89400 4169 ft 257 kts 218°
2026-05-04 00:17 40.56473 -73.90610 4805 ft 267 kts 210°
2026-05-04 00:17 40.54638 -73.91188 4991 ft 276 kts 190°
2026-05-04 00:17 40.52710 -73.91300 5034 ft 280 kts 179°
2026-05-04 00:18 40.50802 -73.90654 5042 ft 286 kts 163°
2026-05-04 00:18 40.48964 -73.89645 5039 ft 288 kts 156°
2026-05-04 00:18 40.47179 -73.88414 5698 ft 292 kts 154°
2026-05-04 00:18 40.45423 -73.87038 6616 ft 298 kts 142°
2026-05-04 00:19 40.44112 -73.84907 7417 ft 304 kts 114°
2026-05-04 00:19 40.43593 -73.82238 8221 ft 303 kts 88°
2026-05-04 00:19 40.43628 -73.79469 9074 ft 304 kts 82°
2026-05-04 00:19 40.43832 -73.76712 9955 ft 301 kts 69°
2026-05-04 00:20 40.44573 -73.74115 10384 ft 313 kts 58°
2026-05-04 00:20 40.45625 -73.71528 10720 ft 324 kts 45°
2026-05-04 00:20 40.47288 -73.69616 11364 ft 317 kts 22°
2026-05-04 00:20 40.49344 -73.68670 12097 ft 314 kts
2026-05-04 00:21 40.51487 -73.68024 12863 ft 318 kts
2026-05-04 00:21 40.53668 -73.67405 13642 ft 323 kts
2026-05-04 00:21 40.55880 -73.66788 14330 ft 328 kts
2026-05-04 00:21 40.58134 -73.66150 15028 ft 333 kts
2026-05-04 00:22 40.60386 -73.65561 15683 ft 334 kts
2026-05-04 00:22 40.62667 -73.65825 16312 ft 329 kts 338°
2026-05-04 00:22 40.64738 -73.67086 16998 ft 328 kts 328°
2026-05-04 00:22 40.66748 -73.68551 17700 ft 332 kts 327°
2026-05-04 00:23 40.68777 -73.70025 18381 ft 335 kts 327°
2026-05-04 00:23 40.70833 -73.71502 19021 ft 339 kts 327°
2026-05-04 00:23 40.72881 -73.73066 19690 ft 339 kts 319°
2026-05-04 00:23 40.74539 -73.75246 20376 ft 338 kts 308°
2026-05-04 00:24 40.76062 -73.77620 21106 ft 340 kts 307°
2026-05-04 00:24 40.77574 -73.80031 21811 ft 342 kts 306°
2026-05-04 00:24 40.79059 -73.82508 22509 ft 345 kts 305°
2026-05-04 00:24 40.80529 -73.85027 23212 ft 348 kts 304°
2026-05-04 00:25 40.82001 -73.87573 23848 ft 351 kts 304°
2026-05-04 00:25 40.83486 -73.90145 24419 ft 354 kts 304°
2026-05-04 00:25 40.84992 -73.92740 24977 ft 357 kts 304°
2026-05-04 00:25 40.86494 -73.95321 25517 ft 360 kts 304°
2026-05-04 00:26 40.88027 -73.97951 26058 ft 364 kts 304°
2026-05-04 00:26 40.89582 -74.00612 26604 ft 367 kts 304°
2026-05-04 00:26 40.91147 -74.03289 27126 ft 370 kts 304°
2026-05-04 00:26 40.92726 -74.05997 27649 ft 373 kts 304°
2026-05-04 00:27 40.94313 -74.08723 28164 ft 376 kts 304°
2026-05-04 00:27 40.95918 -74.11480 28665 ft 379 kts 304°
2026-05-04 00:27 40.97533 -74.14257 29143 ft 382 kts 304°
2026-05-04 00:27 40.99158 -74.17056 29618 ft 385 kts 304°
2026-05-04 00:28 41.00796 -74.19881 29916 ft 388 kts 304°
2026-05-04 00:28 41.02415 -74.22667 29946 ft 374 kts 304°
2026-05-04 00:28 41.05536 -74.28047 29949 ft 365 kts 304°
2026-05-04 00:29 41.08620 -74.33387 29940 ft 365 kts 304°
2026-05-04 00:29 41.11699 -74.38728 29948 ft 365 kts 304°
2026-05-04 00:30 41.14778 -74.44074 29945 ft 365 kts 304°
2026-05-04 00:30 41.17857 -74.49429 29954 ft 365 kts 304°
2026-05-04 00:31 41.20913 -74.54754 29950 ft 365 kts 304°
2026-05-04 00:31 41.24007 -74.60107 29951 ft 365 kts 306°
2026-05-04 00:32 41.27223 -74.65341 29945 ft 366 kts 307°
2026-05-04 00:32 41.30475 -74.70550 29952 ft 366 kts 307°
2026-05-04 00:33 41.35323 -74.78415 29945 ft 366 kts 306°
2026-05-04 00:34 41.38519 -74.83640 29943 ft 367 kts 306°
2026-05-04 00:34 41.41735 -74.88915 29941 ft 367 kts 306°
2026-05-04 00:35 41.44955 -74.94192 29946 ft 367 kts 306°
2026-05-04 00:35 41.48177 -74.99476 29948 ft 367 kts 306°
2026-05-04 00:36 41.51397 -75.04776 29950 ft 368 kts 306°
2026-05-04 00:36 41.54613 -75.10086 29954 ft 368 kts 306°
2026-05-04 00:37 41.57451 -75.15711 29958 ft 364 kts 293°
2026-05-04 00:37 41.59289 -75.22013 29953 ft 364 kts 290°
2026-05-04 00:38 41.61112 -75.28338 29953 ft 365 kts 290°
2026-05-04 00:38 41.62926 -75.34665 29959 ft 365 kts 290°
2026-05-04 00:39 41.64738 -75.40993 29959 ft 365 kts 290°
2026-05-04 00:39 41.66548 -75.47329 29956 ft 365 kts 290°
2026-05-04 00:40 41.68337 -75.53631 29957 ft 365 kts 290°
2026-05-04 00:40 41.70141 -75.59984 29955 ft 365 kts 290°
2026-05-04 00:41 41.71933 -75.66332 29957 ft 365 kts 290°
2026-05-04 00:41 41.73730 -75.72687 29953 ft 365 kts 290°
2026-05-04 00:42 41.75526 -75.79048 29952 ft 365 kts 290°
2026-05-04 00:42 41.77320 -75.85406 29955 ft 365 kts 290°
2026-05-04 00:43 41.79105 -75.91776 29958 ft 365 kts 290°
2026-05-04 00:43 41.80909 -75.98137 29955 ft 365 kts 295°
2026-05-04 00:43 41.82305 -76.00975 29957 ft 367 kts 310°
2026-05-04 00:44 41.84070 -76.03460 29948 ft 368 kts 311°
2026-05-04 00:44 41.87641 -76.08395 28881 ft 373 kts 311°
2026-05-04 00:44 41.89451 -76.10892 28175 ft 373 kts 311°
2026-05-04 00:45 41.91254 -76.13377 27587 ft 371 kts 311°
2026-05-04 00:45 41.93026 -76.15827 27054 ft 369 kts 311°
2026-05-04 00:45 41.94805 -76.18287 26539 ft 366 kts 311°
2026-05-04 00:45 41.96571 -76.20734 26035 ft 363 kts 311°
2026-05-04 00:46 41.98318 -76.23163 25560 ft 361 kts 311°
2026-05-04 00:46 42.00054 -76.25578 25107 ft 358 kts 311°
2026-05-04 00:46 42.01778 -76.27979 24663 ft 356 kts 311°
2026-05-04 00:46 42.03489 -76.30363 24235 ft 354 kts 311°
2026-05-04 00:47 42.05192 -76.32743 23828 ft 351 kts 311°
2026-05-04 00:47 42.06333 -76.34343 23563 ft 350 kts 311°
2026-05-04 00:47 42.08016 -76.36696 23106 ft 348 kts 311°
2026-05-04 00:47 42.09687 -76.39032 22631 ft 345 kts 311°
2026-05-04 00:48 42.11323 -76.41323 22178 ft 343 kts 311°
2026-05-04 00:48 42.12971 -76.43636 21717 ft 340 kts 311°
2026-05-04 00:48 42.14605 -76.45927 21249 ft 338 kts 312°
2026-05-04 00:48 42.16230 -76.48204 20785 ft 335 kts 311°
2026-05-04 00:49 42.17839 -76.50463 20313 ft 333 kts 312°
2026-05-04 00:49 42.19438 -76.52710 19851 ft 330 kts 312°
2026-05-04 00:49 42.21025 -76.54938 19374 ft 328 kts 311°
2026-05-04 00:49 42.22599 -76.57154 18886 ft 326 kts 311°
2026-05-04 00:50 42.24165 -76.59358 18441 ft 324 kts 311°
2026-05-04 00:50 42.25718 -76.61546 17965 ft 322 kts 311°
2026-05-04 00:50 42.27261 -76.63719 17467 ft 319 kts 312°
2026-05-04 00:50 42.28788 -76.65870 16986 ft 316 kts 311°
2026-05-04 00:51 42.30300 -76.68006 16539 ft 313 kts 312°
2026-05-04 00:51 42.31797 -76.70126 16058 ft 310 kts 312°
2026-05-04 00:51 42.33279 -76.72230 15605 ft 308 kts 312°
2026-05-04 00:51 42.34752 -76.74316 15143 ft 305 kts 312°
2026-05-04 00:52 42.36214 -76.76384 14702 ft 303 kts 312°
2026-05-04 00:52 42.37662 -76.78435 14267 ft 301 kts 312°
2026-05-04 00:52 42.39078 -76.80447 13840 ft 298 kts 312°
2026-05-04 00:52 42.40519 -76.82496 13370 ft 296 kts 312°
2026-05-04 00:53 42.41916 -76.84481 12904 ft 294 kts 312°
2026-05-04 00:53 42.43325 -76.86483 12432 ft 293 kts 311°
2026-05-04 00:53 42.44726 -76.88476 11972 ft 291 kts 311°
2026-05-04 00:53 42.46119 -76.90455 11514 ft 290 kts 311°
2026-05-04 00:54 42.47504 -76.92423 11055 ft 288 kts 310°
2026-05-04 00:54 42.48879 -76.94386 10608 ft 286 kts 310°
2026-05-04 00:54 42.50250 -76.96344 10200 ft 285 kts 310°
2026-05-04 00:54 42.51583 -76.98247 10082 ft 273 kts 310°
2026-05-04 00:55 42.53017 -76.99883 9954 ft 267 kts 321°
2026-05-04 00:55 42.54657 -77.01047 9719 ft 267 kts 332°
2026-05-04 00:55 42.56379 -77.01940 9449 ft 264 kts 332°
2026-05-04 00:55 42.58091 -77.02827 9180 ft 262 kts 332°
2026-05-04 00:56 42.59787 -77.03712 8911 ft 261 kts 332°
2026-05-04 00:56 42.61482 -77.04596 8647 ft 261 kts 332°
2026-05-04 00:56 42.63179 -77.05483 8384 ft 260 kts 332°
2026-05-04 00:56 42.64864 -77.06361 8126 ft 259 kts 332°
2026-05-04 00:57 42.66544 -77.07239 7866 ft 258 kts 332°
2026-05-04 00:57 42.68218 -77.08119 7613 ft 258 kts 331°
2026-05-04 00:57 42.69891 -77.08998 7357 ft 258 kts 331°
2026-05-04 00:57 42.71560 -77.09874 7111 ft 257 kts 331°
2026-05-04 00:58 42.73219 -77.10744 6858 ft 255 kts 331°
2026-05-04 00:58 42.74850 -77.11602 6609 ft 254 kts 331°
2026-05-04 00:58 42.76514 -77.12477 6361 ft 253 kts 330°
2026-05-04 00:58 42.78160 -77.13347 6103 ft 253 kts 330°
2026-05-04 00:59 42.79775 -77.14201 5846 ft 252 kts 330°
2026-05-04 00:59 42.81405 -77.15066 5571 ft 250 kts 330°
2026-05-04 00:59 42.83026 -77.15924 5330 ft 250 kts 330°
2026-05-04 00:59 42.84650 -77.16783 5073 ft 250 kts 330°
2026-05-04 01:00 42.86264 -77.17637 4810 ft 249 kts 330°
2026-05-04 01:00 42.87847 -77.18465 4559 ft 237 kts 330°
2026-05-04 01:00 42.89344 -77.19240 4333 ft 222 kts 330°
2026-05-04 01:00 42.90762 -77.19979 4148 ft 216 kts 329°
2026-05-04 01:01 42.92158 -77.20719 3968 ft 216 kts 329°
2026-05-04 01:01 42.93558 -77.21466 3784 ft 216 kts 329°
2026-05-04 01:01 42.94957 -77.22213 3609 ft 216 kts 329°
2026-05-04 01:01 42.96356 -77.22958 3428 ft 215 kts 329°
2026-05-04 01:02 42.97743 -77.23694 3251 ft 214 kts 329°
2026-05-04 01:02 42.99104 -77.24417 3080 ft 212 kts 329°
2026-05-04 01:02 43.00473 -77.25146 2921 ft 211 kts 329°
2026-05-04 01:02 43.01839 -77.25875 2820 ft 210 kts 329°
2026-05-04 01:03 43.03175 -77.26582 2707 ft 202 kts 329°
2026-05-04 01:03 43.04485 -77.27279 2606 ft 202 kts 329°
2026-05-04 01:03 43.05795 -77.27979 2503 ft 202 kts 329°
2026-05-04 01:03 43.07101 -77.28675 2408 ft 202 kts 329°
2026-05-04 01:04 43.08409 -77.29377 2315 ft 202 kts 329°
2026-05-04 01:04 43.09723 -77.30077 2223 ft 203 kts 330°
2026-05-04 01:04 43.11006 -77.30848 2228 ft 196 kts 320°
2026-05-04 01:04 43.11991 -77.31925 2250 ft 166 kts 305°
2026-05-04 01:05 43.12634 -77.33065 2234 ft 141 kts 295°
2026-05-04 01:05 43.13018 -77.34239 2222 ft 132 kts 276°
2026-05-04 01:05 43.13077 -77.35482 2222 ft 133 kts 271°
2026-05-04 01:05 43.13099 -77.36746 2233 ft 132 kts 269°
2026-05-04 01:06 43.13094 -77.37979 2229 ft 129 kts 268°
2026-05-04 01:06 43.13075 -77.39208 2223 ft 129 kts 268°
2026-05-04 01:06 43.13049 -77.40435 2221 ft 129 kts 268°
2026-05-04 01:06 43.13019 -77.41656 2222 ft 129 kts 267°
2026-05-04 01:07 43.12988 -77.42878 2223 ft 128 kts 267°
2026-05-04 01:07 43.12955 -77.44117 2220 ft 133 kts 267°
2026-05-04 01:07 43.12920 -77.45393 2217 ft 135 kts 267°
2026-05-04 01:07 43.12884 -77.46684 2213 ft 136 kts 267°
2026-05-04 01:08 43.12848 -77.47976 2181 ft 136 kts 267°
2026-05-04 01:08 43.12812 -77.49268 2121 ft 135 kts 267°
2026-05-04 01:08 43.12777 -77.50538 2115 ft 133 kts 267°
2026-05-04 01:08 43.12741 -77.51794 2123 ft 132 kts 267°
2026-05-04 01:09 43.12706 -77.53043 2114 ft 131 kts 267°
2026-05-04 01:09 43.12670 -77.54294 2106 ft 132 kts 267°
2026-05-04 01:09 43.12634 -77.55545 2015 ft 131 kts 267°
2026-05-04 01:09 43.12599 -77.56796 1877 ft 132 kts 266°
2026-05-04 01:10 43.12562 -77.58069 1713 ft 133 kts 266°
2026-05-04 01:10 43.12525 -77.59327 1528 ft 133 kts 266°
2026-05-04 01:10 43.12489 -77.60590 1325 ft 135 kts 266°
2026-05-04 01:10 43.12452 -77.61861 1137 ft 134 kts 267°
2026-05-04 01:11 43.12414 -77.63148 951 ft 136 kts 267°
2026-05-04 01:11 43.12376 -77.64431 762 ft 134 kts 268°
2026-05-04 01:11 43.12339 -77.65714 590 ft 135 kts 268°
2026-05-04 01:11 43.12305 -77.66864 564 ft 98 kts 268°
2026-05-04 01:12 43.12293 -77.67254 560 ft 11 kts 268°
2026-05-04 01:12 43.12294 -77.67383 559 ft 16 kts 292°
2026-05-04 01:12 43.12395 -77.67359 563 ft 20 kts 36°
2026-05-04 01:12 43.12529 -77.67223 567 ft 18 kts 56°
2026-05-04 01:13 43.12507 -77.67071 568 ft 18 kts 93°
2026-05-04 01:13 43.12512 -77.66964 564 ft 8 kts 85°
2026-05-04 01:13 43.12518 -77.66863 562 ft 13 kts 87°
2026-05-04 01:13 43.12517 -77.66725 560 ft 16 kts 90°
2026-05-04 01:14 43.12522 -77.66561 557 ft 19 kts 86°
2026-05-04 01:14 43.12583 -77.66501 562 ft 12 kts 354°
2026-05-04 01:14 43.12638 -77.66455 559 ft 5 kts 64°
2026-05-04 01:14 43.12645 -77.66439 564 ft 0 kts 56°